EDT,Max TemperatureF,Mean TemperatureF,Min TemperatureF,Max Dew PointF,MeanDew PointF,Min DewpointF,Max Humidity, Mean Humidity, Min Humidity, Max Sea Level PressureIn, Mean Sea Level PressureIn, Min Sea Level PressureIn, Max VisibilityMiles, Mean VisibilityMiles, Min VisibilityMiles, Max Wind SpeedMPH, Mean Wind SpeedMPH, Max Gust SpeedMPH,PrecipitationIn, CloudCover, Events, WindDirDegrees
2013-3-1,54,42,29,35,30,28,92,67,41,29.92,29.89,29.84,10,10,10,17,6,21,0.00,3,,300
2013-3-2,47,41,34,36,31,27,85,67,49,29.92,29.88,29.84,10,10,10,14,5,17,0.00,7,,346
2013-3-3,47,37,26,27,22,19,81,59,37,29.99,29.93,29.87,10,10,10,18,8,24,0.00,1,,313
2013-3-4,52,39,25,28,21,17,85,56,26,30.15,30.08,30.00,10,10,10,21,7,26,0.00,0,,301
2013-3-5,65,48,31,51,40,28,89,66,42,30.10,29.91,29.60,10,10,9,20,6,25,0.01,4,Rain,196
2013-3-6,58,48,38,50,31,21,80,58,36,30.05,29.76,29.57,10,10,10,32,20,43,0.00,4,,290
2013-3-7,56,45,33,32,30,27,82,60,38,30.23,30.15,30.06,10,10,10,17,9,25,0.00,0,,317
2013-3-8,57,43,28,29,26,24,85,57,28,30.29,30.22,30.16,10,10,10,21,9,29,0.00,0,,324
2013-3-9,64,49,34,37,31,26,85,58,30,30.33,30.28,30.23,10,10,10,14,5,17,0.00,0,,8
2013-3-10,68,50,32,37,30,23,100,60,19,30.32,30.26,30.21,10,10,8,10,4,15,0.00,0,,131
2013-3-11,71,54,37,54,46,32,96,72,47,30.24,30.09,29.95,10,10,9,22,8,30,0.00,3,,146
2013-3-12,73,63,52,63,59,47,93,70,47,29.94,29.83,29.76,10,8,2,17,10,23,0.46,7,Rain,203
2013-3-13,61,49,37,34,30,23,65,47,29,30.12,30.03,29.96,10,10,10,21,8,30,0.00,3,,313
2013-3-14,53,43,32,32,22,17,82,56,30,30.27,30.19,30.14,10,10,10,20,9,25,0.00,0,,317
2013-3-15,63,45,27,39,30,23,92,61,30,30.21,30.11,29.96,10,10,10,14,5,21,0.00,0,,218
2013-3-16,79,66,53,48,43,39,59,43,27,29.94,29.84,29.73,10,10,10,29,14,36,0.00,0,,234
2013-3-17,77,62,46,55,48,43,86,65,43,30.09,29.95,29.87,10,10,8,20,8,25,0.00,2,,273
2013-3-18,58,52,45,50,44,40,92,82,71,30.14,30.04,29.90,10,8,2,20,7,29,0.34,8,Rain,46
2013-3-19,69,57,45,49,42,25,100,62,24,30.01,29.88,29.79,10,6,1,18,8,23,T,5,Rain,304
2013-3-20,56,44,32,31,24,19,89,58,26,30.13,29.99,29.81,10,10,10,13,4,17,0.00,2,,359
2013-3-21,51,42,32,30,21,11,89,55,21,29.98,29.82,29.74,10,10,10,23,12,31,0.00,0,,318
2013-3-22,52,39,26,32,21,13,82,55,28,30.11,30.04,29.99,10,10,10,16,3,20,0.00,1,,307
2013-3-23,56,44,32,43,37,30,92,76,59,30.06,30.00,29.91,10,9,4,8,1,10,0.02,5,Rain,27
2013-3-24,47,44,40,46,42,39,100,95,89,29.91,29.62,29.50,10,4,1,18,8,24,0.72,8,Rain,34
2013-3-25,52,45,38,41,34,24,96,68,39,29.87,29.64,29.57,10,8,2,25,12,33,0.00,7,,255
2013-3-26,50,42,33,31,27,25,70,56,42,30.14,29.98,29.88,10,10,10,18,10,23,0.00,5,,289
2013-3-27,55,42,29,28,26,24,85,59,32,30.24,30.19,30.14,10,10,10,21,9,29,0.00,0,,308
2013-3-28,57,44,30,30,26,23,85,58,30,30.29,30.23,30.17,10,10,10,20,8,25,0.00,0,,308
2013-3-29,62,45,28,41,29,25,92,59,25,30.35,30.27,30.20,10,10,10,16,3,20,0.00,2,,293
2013-3-30,64,56,47,49,45,37,100,76,52,30.26,30.18,30.11,10,9,3,10,4,15,0.18,5,Rain,167
2013-3-31,72,60,48,59,52,44,97,75,53,30.11,29.95,29.83,10,9,2,20,8,26,0.15,6,Rain,197